Location: B?dimalle
(17.1788°N, 80.5377°E)
Time: 10:46:43
(UTC+00:00)

Tiros 1 despin weight - Pass Details

Date: 25 February 2026
Orbit: 556 x 593 km, 48.2° (Epoch: 10 March)

Event Time Altitude Azimuth Distance (km) Brightness Sun altitude
Rises 14:22:03 0° 318° (NW) 2,723 ? -24.3°
Reaches altitude 10° 14:24:17 10° 319° (NW) 1,830 ? -24.8°
Enters shadow 14:27:19 47° 323° (NW) 738 ? -25.6°
Maximum altitude 14:28:28 86° 45° (NE) 561 - -25.8°
Drops below altitude 10° 14:32:41 10° 137° (SE) 1,843 - -26.8°
Sets 14:34:57 0° 138° (SE) 2,743 - -27.4°
